DateTime,DeltaTime,Roll,TargetAngle,Position,Power
2022-05-17 14:26:45.866,0,-26.47,-30,-31,-5.71
2022-05-17 14:26:45.981,0.115006417036057,-17.24,-30,-28,-5.8
2022-05-17 14:26:46.095,0.229007005691528,-4.51,25,-23,-90
2022-05-17 14:26:46.210,0.344003364443779,5.71,25,-18,-90
2022-05-17 14:26:46.324,0.458003953099251,8.96,25,-8,-90
2022-05-17 14:26:46.439,0.573000311851501,6.36,-2.44,-3,28.48
2022-05-17 14:26:46.554,0.688006728887558,1.88,-26.28,-3,90
2022-05-17 14:26:46.667,0.801001489162445,-0.51,-25.57,-8,82.37
2022-05-17 14:26:46.783,0.91700367629528,0.52,-7.02,-16,-34.45
2022-05-17 14:26:46.898,1.03200003504753,1.26,-5.71,-17,-50.25
2022-05-17 14:26:47.012,1.146000623703,0.49,-14.95,-16,3.23
2022-05-17 14:26:47.127,1.26100704073906,-0.87,-22.34,-16,34.19
2022-05-17 14:26:47.241,1.37500762939453,-1.53,-21.59,-17,20.05
2022-05-17 14:26:47.356,1.49000398814678,-0.97,-14.24,-19,-20.21
2022-05-17 14:26:47.471,1.60500034689903,-0.45,-12.63,-18,-27.6
2022-05-17 14:26:47.585,1.7190009355545,-0.17,-12.7,-18,-18.09
2022-05-17 14:26:47.700,1.83400735259056,0.0300000000000002,-12.39,-16,-21.51
2022-05-17 14:26:47.816,1.94999948143959,-0.0499999999999998,-13.81,-16,-4.54
2022-05-17 14:26:47.931,2.06500589847565,0.0600000000000001,-12.64,-16,-15.09
2022-05-17 14:26:48.044,2.17800065875053,0.4,-10.46,-16,-24.72
2022-05-17 14:26:48.159,2.29300707578659,0.13,-14.08,-14,-4.31
2022-05-17 14:26:48.274,2.40800343453884,-0.2,-15.48,-16,7.8
2022-05-17 14:26:48.389,2.52299979329109,-0.49,-16.31,-16,-2.4
2022-05-17 14:26:48.503,2.63700038194656,-0.81,-17.59,-15,5.59
2022-05-17 14:26:48.645,2.77900323271751,-0.69,-15.18,-15,-3
2022-05-17 14:26:48.733,2.86700315773487,0.0300000000000002,-10.11,-15,-26.49
2022-05-17 14:26:48.847,2.98100374639034,0.14,-12.39,-15,-8.9
2022-05-17 14:26:48.962,3.09600010514259,0.59,-9.29,-15,-27.61
2022-05-17 14:26:49.076,3.21000069379807,0.49,-12.08,-14,-10.16
2022-05-17 14:26:49.191,3.32500711083412,0.38,-12.45,-14,-7.19
2022-05-17 14:26:49.306,3.44000346958637,0.28,-12.8,-14,-7.39
2022-05-17 14:26:49.421,3.55499982833862,0.17,-13.22,-14,-5.88
2022-05-17 14:26:49.535,3.66900041699409,-0.0899999999999999,-14.77,-14,1.26
2022-05-17 14:26:49.654,3.78799997270107,0.0500000000000003,-12.54,-14,-11.82
2022-05-17 14:26:49.765,3.8990031927824,0.55,-9.23,-14,-25.59
2022-05-17 14:26:49.879,4.01300378143787,0.5,-11.8,-14,-8.88
2022-05-17 14:26:49.994,4.12800014019012,0.62,-10.62,-14,-18.34
2022-05-17 14:26:50.109,4.24300655722618,0.6,-11.33,-13,-13.52
2022-05-17 14:26:50.223,4.35700714588165,0.72,-10.27,-14,-15.01
2022-05-17 14:26:50.338,4.4720035046339,0.82,-10.06,-13,-21.25
2022-05-17 14:26:50.452,4.58600409328938,0.68,-11.58,-14,-7.43
2022-05-17 14:26:50.567,4.70100045204163,0.59,-11.63,-14,-15.57
2022-05-17 14:26:50.682,4.81600686907768,0.88,-9.04,-13,-27.53
2022-05-17 14:26:50.797,4.93100322782993,0.5,-13.24,-14,1.41
2022-05-17 14:26:50.910,5.04400804638863,0.36,-12.7,-13,-13.06
2022-05-17 14:26:51.026,5.16000017523766,0.39,-11.86,-14,-10.38
2022-05-17 14:26:51.141,5.27500659227371,0.31,-12.55,-14,-12.22
2022-05-17 14:26:51.256,5.39000295102596,0.7,-9.21,-13,-28.67
2022-05-17 14:26:51.370,5.50400353968143,1,-8.52,-14,-23.17
2022-05-17 14:26:51.484,5.61800412833691,0.71,-12.15,-12,-10.87
2022-05-17 14:26:51.599,5.73300048708916,0.64,-11.36,-13,-8.38
2022-05-17 14:26:51.714,5.84800690412521,0.47,-12.45,-12,-9.6
2022-05-17 14:26:51.830,5.96399903297424,-0.1,-16.19,-12,13.94
2022-05-17 14:26:51.943,6.07700385153294,-0.55,-17.2,-13,13.17
2022-05-17 14:26:52.058,6.19200021028519,-0.57,-15.44,-11,-1.47
2022-05-17 14:26:52.172,6.30600079894066,0.0800000000000001,-10.19,-12,-13.9
2022-05-17 14:26:52.287,6.42100721597672,0.72,-8.03,-12,-25.51
2022-05-17 14:26:52.402,6.53600357472897,1.37,-5.68,-11,-33.48
2022-05-17 14:26:52.517,6.65099993348122,1.14,-10.33,-10,-2.78
2022-05-17 14:26:52.632,6.76600635051727,0.57,-13.87,-10,12.5
2022-05-17 14:26:52.746,6.88000693917274,0.0300000000000002,-15.57,-10,15.43
2022-05-17 14:26:52.862,6.99599906802177,-0.16,-14.74,-10,9.56
2022-05-17 14:26:52.975,7.10900388658047,-0.0600000000000001,-13.1,-9,2.87
2022-05-17 14:26:53.091,7.2250060737133,0.31,-10.64,-10,-2.02
2022-05-17 14:26:53.205,7.33900666236877,0.68,-9.32,-9,-11.55
2022-05-17 14:26:53.320,7.45400302112103,0.89,-9.32,-10,-3.58
2022-05-17 14:26:53.434,7.5680036097765,0.95,-9.76,-10,-7.63
2022-05-17 14:26:53.549,7.68299996852875,0.79,-11.25,-9,0.53
2022-05-17 14:26:53.698,7.83200338482857,0.7,-11.3,-9,3.94
2022-05-17 14:26:53.778,7.91200697422028,0.63,-11.46,-9,3.56
2022-05-17 14:26:53.894,8.02799910306931,0.63,-11.11,-9,1.82
2022-05-17 14:26:54.007,8.141003921628,0.7,-10.56,-9,-0.27
2022-05-17 14:26:54.122,8.25600028038025,0.7,-10.92,-9,2.41
2022-05-17 14:26:54.237,8.37100669741631,0.63,-11.46,-9,4.79
2022-05-17 14:26:54.354,8.48800465464592,0.46,-12.48,-10,9.43
2022-05-17 14:26:54.466,8.60000364482403,0.39,-12.27,-9,2.36
2022-05-17 14:26:54.581,8.71500000357628,0.38,-12.03,-9,7.93
2022-05-17 14:26:54.696,8.83000642061234,0.61,-10.24,-10,-1.74
2022-05-17 14:26:54.810,8.94400700926781,0.96,-8.46,-10,-13.17
2022-05-17 14:26:54.926,9.05999913811684,1.26,-7.64,-8,-13.77
2022-05-17 14:26:55.040,9.17399972677231,1.5,-7.05,-9,-5.87
2022-05-17 14:26:55.155,9.28900614380836,1.4,-8.86,-9,-3.75
2022-05-17 14:26:55.269,9.40300673246384,1.08,-10.95,-9,5.63
2022-05-17 14:26:55.384,9.51800309121609,0.58,-13.5,-10,15.81
2022-05-17 14:26:55.498,9.63200367987156,0.16,-14.63,-9,13.57
2022-05-17 14:26:55.614,9.74800586700439,0,-14,-10,15.65
2022-05-17 14:26:55.728,9.86200645565987,0.18,-11.95,-10,0.39
2022-05-17 14:26:55.843,9.97700281441212,0.67,-8.8,-9,-11.2
2022-05-17 14:26:55.957,10.0910034030676,0.95,-8.8,-9,-2.2
2022-05-17 14:26:56.072,10.2059997618198,1.17,-8.31,-9,-5.95
2022-05-17 14:26:56.187,10.3210061788559,1.23,-8.77,-9,-3.09
2022-05-17 14:26:56.301,10.4350067675114,1.21,-9.18,-9,-1.66
2022-05-17 14:26:56.416,10.5500031262636,1.16,-9.52,-9,-0.5
2022-05-17 14:26:56.531,10.6649994850159,0.91,-11.23,-9,7.68
2022-05-17 14:26:56.646,10.7800059020519,0.63,-12.38,-9,11.4
2022-05-17 14:26:56.760,10.8940064907074,0.37,-13.14,-9,14.02
